User: anonymous   Login
Location: Hepcat Sky Observatory
(29.9800°N, 95.6500°W)
Time: 19:36:33
(UTC-05:00)
Language:

Cosmos 2151 Rocket - Orbit

View from above orbital plane
View from above orbital plane
View from above satellite
View from above satellite

Ground track
Ground track

The orbit data is extracted from the following two-line orbital elements,

1 21423U 91042B   16146.84394855  .00000135  00000-0  14841-4 0  9993
2 21423  82.4921 323.3667 0019189  80.2240 280.1139 14.79634654345302
Epoch (UTC): 25 May 2016 20:15:17
Eccentricity: 0.0019189
inclination: 82.4921°
perigee height: 617 km
apogee height: 644 km
right ascension of ascending node: 323.3667°
argument of perigee: 80.2240°
revolutions per day: 14.79634654
mean anomaly at epoch: 280.1139°
orbit number at epoch: 34530

The dashed part of the orbit path shows where the satellite is in the earth's shadow,  

DLR